Theta_e
309 311 312 312 313 313 313 312 313 313 313 315 316 315 311 310 312 311 308 307 304 301 301 300 298 299 297 297 297 296 295 296 296 296 296 293 292 292 292 292 291 291 291
308 309 310 310 310 309 308 306 307 307 305 304 303 304 302 302 303 303 301 301 299 296 294 293 291 291 290 291 291 290 290 291 290 288 290 291 290 290 290 289 289 290 290
305 307 306 306 306 304 303 301 300 299 298 297 297 297 296 297 298 297 295 292 291 290 289 288 288 288 287 288 288 288 289 289 290 288 287 290 290 289 288 289 288 288 289
302 303 302 302 302 302 301 300 298 297 296 294 293 293 293 292 291 288 288 288 288 288 288 288 288 288 288 288 288 288 289 289 289 288 287 287 287 288 287 285 285 288 287
300 299 298 296 297 295 295 294 293 292 291 290 289 288 288 287 286 288 287 288 287 286 287 287 288 288 288 289 290 289 289 288 287 286 285 286 285 284 283 285 284 286 287
298 297 293 293 292 291 290 290 290 290 289 288 288 288 287 286 289 289 288 287 287 287 287 287 288 286 287 287 287 287 288 286 284 285 285 283 283 283 284 283 282 282 281
294 293 291 290 288 288 288 288 288 288 288 287 287 288 288 289 289 288 288 288 288 287 287 286 285 285 286 287 286 286 285 286 286 285 283 283 282 283 283 283 283 282 281
291 289 287 287 286 285 286 286 286 287 287 287 287 288 288 288 288 287 286 287 286 286 286 286 285 285 286 286 285 284 284 283 282 283 283 283 283 283 282 282 281 281 282
287 286 285 285 284 283 283 284 284 285 285 285 285 286 286 287 287 286 285 285 284 283 284 284 285 285 285 286 284 282 282 280 281 281 282 281 280 280 280 280 277 276 276
286 285 284 284 284 283 283 282 283 285 284 284 284 284 284 285 286 286 285 285 283 282 282 283 283 284 283 283 282 280 278 277 278 277 278 278 278 278 277 277 276 274 275
284 282 282 282 282 283 282 281 282 283 282 282 282 283 283 284 285 285 284 284 284 283 282 281 282 282 282 280 280 279 278 276 275 275 276 276 276 276 276 276 276 274 273
281 281 280 280 281 280 280 279 281 281 280 280 281 281 282 282 283 284 283 283 283 283 281 281 281 281 280 279 278 277 275 274 275 274 274 274 273 273 274 274 274 274 275
279 279 278 278 279 279 279 279 279 280 281 280 280 281 280 280 282 283 283 282 280 280 280 280 280 279 279 277 275 273 271 273 273 272 272 272 272 272 272 273 273 274 274
278 277 276 277 277 277 279 280 280 279 280 280 280 280 280 280 280 281 282 281 279 278 279 279 278 275 273 273 272 271 271 271 271 271 270 270 271 271 271 271 270 271 271
277 276 277 277 277 278 279 280 280 281 281 281 281 281 280 279 280 281 280 279 278 277 274 275 273 272 272 271 270 269 269 269 269 269 269 269 269 269 269 270 269 269 268
277 276 277 278 278 278 278 278 279 280 280 280 281 281 281 280 280 281 280 279 278 277 271 272 272 272 272 271 270 268 268 266 267 267 267 267 267 267 267 268 268 267 267
278 277 277 276 277 277 276 277 277 279 281 281 282 282 281 280 281 282 281 280 279 277 271 272 272 271 271 270 269 268 268 266 263 265 265 265 265 265 265 266 266 266 266
274 273 277 277 277 277 277 277 277 278 278 279 282 282 282 281 281 282 282 280 276 277 271 271 271 270 270 269 268 267 266 264 264 264 264 264 263 263 264 265 265 263 264
274 275 276 277 277 276 277 277 277 277 278 280 279 279 281 281 281 282 282 277 273 271 269 268 270 269 268 267 266 265 264 264 263 262 263 261 262 262 263 262 263 261 260
272 271 272 275 275 274 275 275 275 276 276 277 276 277 279 275 278 279 279 278 273 272 270 268 268 267 267 265 264 263 261 261 261 261 261 262 262 261 261 261 261 261 262
273 273 271 273 274 274 274 274 275 276 275 276 277 277 278 275 276 278 278 273 272 271 269 268 267 265 265 264 263 262 261 262 262 261 261 261 260 260 261 261 260 260 260
271 271 272 273 274 274 274 275 275 275 275 275 276 277 278 277 275 276 276 274 272 271 270 268 267 265 264 263 262 262 261 260 261 259 260 259 259 259 259 259 259 260 260
270 270 271 271 272 272 273 273 274 274 274 275 275 275 274 275 275 274 274 274 271 269 268 266 266 264 264 263 263 263 261 261 261 261 260 259 259 259 259 259 259 258 259
269 269 269 270 270 270 271 272 272 272 272 274 274 274 274 272 273 274 272 272 270 268 266 264 264 264 263 262 261 260 260 261 260 259 258 258 258 258 257 257 257 257 258
266 267 268 268 269 269 270 270 271 271 272 272 272 273 272 272 271 271 272 270 267 266 265 263 263 262 262 260 260 258 258 259 257 256 256 256 256 256 256 256 256 257 257
265 265 266 267 267 268 268 269 269 270 270 270 271 271 271 270 270 270 270 268 267 266 265 263 262 261 260 260 260 259 259 259 256 256 255 255 255 255 255 255 255 256 257
Wind_Speed
6 6 6 5 4 4 3 3 3 1 2 2 2 2 1 3 1 4 4 4 5 5 5 6 7 5 5 4 4 4 4 2 1 2 4 6 5 9 9 9 8 9 8
6 6 5 4 4 4 4 4 3 4 4 3 4 5 4 3 4 5 6 6 7 7 6 8 7 5 7 6 5 7 6 6 2 2 2 4 3 5 7 8 7 8 9
6 6 5 5 5 4 4 4 4 5 5 5 5 5 5 5 6 7 8 8 8 8 7 7 6 6 7 4 5 5 4 3 3 2 1 1 2 3 6 5 7 7 7
4 5 5 5 5 5 4 5 5 5 6 5 6 6 6 6 7 7 8 9 9 9 8 7 7 7 7 6 5 6 5 4 3 2 2 2 3 5 5 7 8 6 8
5 4 4 4 5 5 5 4 5 6 6 6 6 7 7 6 4 7 8 9 10 10 7 7 7 6 8 5 5 4 4 2 2 2 0 2 3 6 6 6 8 8 7
6 5 5 5 4 4 5 5 6 6 7 6 6 6 7 3 11 13 11 9 9 9 9 8 7 6 7 8 7 7 4 4 3 1 0 2 4 6 7 7 8 9 9
6 6 5 5 5 5 5 6 6 6 6 7 7 6 7 7 10 12 9 7 8 7 7 6 5 3 3 5 6 6 5 6 7 2 2 4 6 7 7 8 8 9 9
6 6 5 5 5 5 6 6 6 6 6 6 6 6 7 6 11 12 10 8 7 6 5 5 5 4 3 3 4 5 4 4 4 3 2 3 4 7 7 7 8 9 9
7 6 5 5 6 6 5 6 5 5 5 4 4 5 6 6 12 12 9 7 7 6 5 5 5 4 2 5 4 4 4 4 6 7 5 8 7 9 10 6 6 7 7
6 6 6 4 5 5 6 6 4 4 5 4 5 4 3 4 9 8 6 5 7 5 5 5 3 4 5 4 4 4 4 2 2 4 4 5 6 7 9 6 5 6 7
5 5 5 4 5 5 6 4 6 6 6 5 5 3 3 2 5 6 6 4 4 5 5 4 3 7 7 6 4 2 2 3 3 2 2 2 4 5 5 6 6 5 5
5 5 5 5 4 5 7 5 6 6 7 7 6 5 3 2 2 5 4 2 5 5 5 5 5 8 9 7 4 6 7 4 2 2 2 3 4 5 6 7 8 7 6
6 5 4 4 4 5 7 7 6 7 6 7 6 6 6 5 4 6 6 6 5 4 4 7 11 10 11 8 7 6 3 2 2 2 2 2 3 4 6 6 7 9 8
5 5 4 5 5 5 5 6 6 7 7 7 7 7 6 6 6 5 5 5 5 5 8 6 7 6 5 6 3 3 2 2 2 2 2 2 3 3 3 4 5 7 7
5 5 6 5 6 6 6 6 7 7 7 7 7 7 8 7 8 9 9 7 6 7 7 5 5 5 5 4 4 3 3 2 2 2 0 1 2 3 3 4 4 5 5
6 5 5 4 4 4 4 5 9 9 11 12 11 9 6 5 8 14 13 11 12 15 4 6 7 6 7 6 5 5 3 3 3 1 1 1 1 3 4 3 3 4 5
5 4 4 4 4 5 5 5 6 6 11 15 14 13 14 8 13 16 15 15 15 16 6 7 7 7 7 6 5 5 4 3 2 2 1 1 1 2 3 3 3 4 5
4 2 4 5 5 5 6 7 6 7 8 8 14 13 15 14 15 18 17 14 8 13 8 7 8 7 7 7 6 5 4 3 3 3 3 2 2 3 3 2 2 3 5
4 5 5 5 6 6 6 7 7 8 8 8 6 8 13 17 18 19 19 9 8 9 8 8 7 7 7 6 5 5 5 5 4 4 4 4 3 3 3 3 3 3 4
5 7 5 6 6 6 6 8 8 9 9 9 8 9 7 5 10 11 11 10 8 8 8 8 8 7 7 7 7 6 6 6 5 5 5 5 4 4 4 3 3 4 4
4 4 6 6 7 7 8 9 8 8 9 9 10 9 16 10 11 11 11 9 10 9 9 8 8 8 7 7 7 7 7 6 6 6 5 5 4 5 4 4 4 4 5
4 5 5 7 7 8 8 8 8 9 10 10 9 9 20 11 10 11 12 10 10 9 8 8 8 8 8 9 9 9 9 8 7 7 7 5 5 5 5 5 5 5 4
4 6 6 7 7 8 8 8 9 9 10 11 10 9 8 11 11 12 12 11 9 9 9 8 8 8 8 8 8 8 9 9 8 7 7 6 6 6 5 6 5 5 5
6 7 7 7 7 8 9 9 9 11 11 11 10 10 10 10 11 13 11 10 9 9 9 9 9 11 9 9 8 8 8 6 6 7 8 7 6 6 6 6 6 7 6
6 7 8 8 8 8 8 9 10 10 10 10 10 10 10 10 11 11 10 9 9 10 11 10 9 12 14 14 12 13 12 13 9 9 7 8 8 8 7 6 6 6 7
7 7 7 7 8 8 8 9 10 10 10 10 10 10 10 10 10 10 9 10 10 10 10 9 11 14 14 13 15 15 14 14 12 14 8 8 8 7 7 8 10 7 7
Wind_Direction
143 152 159 157 158 158 173 185 206 132 257 254 271 73 74 64 126 119 108 111 107 86 64 87 80 74 66 62 58 62 71 49 168 31 10 9 1 3 358 360 352 349 339
149 161 150 122 108 110 89 73 80 109 86 92 87 100 95 91 75 102 107 103 107 102 92 83 75 76 63 44 43 55 55 41 15 29 3 353 339 353 341 338 341 339 333
154 158 136 125 122 114 108 102 88 89 80 70 87 92 94 90 98 93 94 88 85 84 88 98 94 97 90 85 84 93 109 104 84 100 268 267 295 345 330 334 338 320 311
146 154 146 134 129 121 112 103 102 103 99 92 79 87 80 84 82 81 91 92 86 81 78 82 94 110 126 134 123 125 133 144 159 185 234 311 319 358 329 332 329 328 318
155 147 128 119 114 111 108 95 86 81 88 86 89 78 75 74 83 100 100 105 109 109 108 106 108 104 119 145 141 139 136 128 80 59 5 333 333 339 332 328 323 318 318
164 154 141 136 120 113 108 111 111 107 104 99 91 99 104 101 128 131 133 126 131 131 127 124 123 116 105 100 86 73 79 128 136 137 70 336 321 329 331 327 323 330 335
164 154 160 149 135 133 132 129 125 122 120 112 117 122 118 119 131 130 120 126 130 134 136 140 134 120 126 123 109 108 82 84 54 40 19 356 327 336 322 320 327 322 311
163 158 155 157 149 144 143 136 126 128 135 140 138 129 122 122 136 134 123 124 124 122 128 129 133 137 144 164 155 129 129 71 49 45 21 344 350 348 337 320 316 317 299
161 161 174 170 154 156 153 148 134 140 140 139 133 122 134 143 152 150 136 129 127 121 120 132 146 161 166 157 166 147 136 65 46 36 36 41 21 17 12 342 355 334 327
166 165 168 165 157 161 150 144 138 152 145 138 127 133 124 138 167 169 154 144 144 142 133 118 133 135 144 140 153 169 121 64 15 26 35 31 18 16 24 16 344 339 331
137 141 155 163 159 156 148 151 152 151 143 145 144 146 138 152 159 170 177 171 164 158 156 157 156 159 130 124 119 113 162 139 78 69 41 12 15 8 8 5 349 331 324
135 146 168 171 162 159 152 147 161 162 163 165 164 172 172 174 192 171 173 174 163 167 168 159 148 153 128 121 117 124 111 112 104 91 70 34 13 1 350 344 329 323 308
139 157 168 173 168 163 163 168 172 182 184 185 188 194 192 192 193 190 162 145 135 143 161 169 153 151 131 120 128 109 103 102 111 124 85 51 6 345 323 327 325 327 317
149 165 177 191 185 180 185 184 189 192 196 196 202 206 197 195 193 187 178 152 154 149 159 146 160 162 157 136 128 96 81 80 84 72 40 353 338 342 321 339 330 338 326
167 179 192 201 197 192 208 202 209 214 210 204 210 206 194 203 206 196 184 180 178 181 159 162 173 184 184 176 167 158 161 157 133 125 138 21 345 337 331 340 339 335 341
185 194 202 200 201 210 213 227 233 243 230 236 236 219 212 231 201 192 193 194 190 178 192 196 197 202 203 195 189 181 181 167 157 176 110 353 350 321 323 325 341 341 337
205 189 193 208 212 217 217 225 238 228 240 239 238 235 229 232 209 202 202 201 196 184 222 210 210 201 198 195 193 195 178 166 154 180 204 241 302 283 288 318 340 343 336
213 205 217 218 221 222 223 225 227 229 226 227 230 230 230 224 218 212 207 205 205 207 214 219 213 205 196 196 190 186 177 173 202 207 202 220 235 266 276 298 320 328 333
231 236 230 236 230 230 231 233 235 236 237 233 218 236 221 220 221 219 214 206 209 217 218 224 218 203 197 192 188 184 190 185 200 208 210 216 221 244 258 272 285 277 294
261 261 250 247 245 237 235 237 235 233 234 231 223 225 200 187 214 214 214 216 203 213 213 217 211 203 197 192 190 187 191 190 197 217 226 216 223 236 250 253 262 286 287
285 273 250 255 256 250 245 239 239 238 237 236 236 223 211 212 219 221 217 204 209 211 210 212 206 202 197 193 192 189 201 200 202 211 226 222 218 233 235 250 259 249 264
289 285 270 259 259 255 250 249 247 247 246 245 244 237 232 225 226 227 227 216 211 207 202 202 203 202 194 195 195 198 200 201 201 204 221 219 220 229 232 239 248 255 259
281 276 270 267 265 266 259 252 251 249 252 252 250 246 223 229 229 228 229 223 207 199 195 197 201 199 199 198 198 202 198 200 193 194 205 215 213 227 227 240 238 244 245
288 281 278 278 276 274 271 266 261 256 257 261 256 249 243 232 238 242 227 222 210 203 196 197 201 200 199 201 201 207 213 207 185 190 196 210 217 218 233 235 239 240 246
301 293 288 283 280 275 275 271 269 268 267 262 261 261 255 247 242 240 230 218 205 200 198 194 197 204 208 207 207 206 206 208 197 194 192 207 216 221 223 230 240 241 238
305 293 289 286 281 280 278 277 277 274 271 269 265 262 262 258 255 251 237 222 217 212 202 193 196 200 204 216 220 214 211 209 203 201 194 202 206 216 216 224 228 235 237